Location: Bothwell
(42.3833°S, 147.0000°E)
Time: 23:10:19
(UTC+11:00)

DUCHIFAT 1 - Visible Passes

Search period start: 04 December 2023 00:00
Search period end: 14 December 2023 00:00
Orbit: 551 x 573 km, 98.1° (Epoch: 03 December)

Date Brightness Start Highest point End Pass type
(mag) Time Alt. Az. Time Alt. Az. Time Alt. Az.
04 Dec ? 03:30:29 10° ENE 03:33:52 25° ESE 03:37:18 10° SSE visible
05 Dec ? 03:29:56 10° ENE 03:33:18 25° ESE 03:36:41 10° SSE visible
06 Dec ? 03:29:22 10° ENE 03:32:42 24° ESE 03:36:03 10° SSE visible
07 Dec ? 03:28:47 10° ENE 03:32:05 24° ESE 03:35:24 10° SSE visible
08 Dec ? 03:28:10 10° ENE 03:31:26 23° ESE 03:34:44 10° SSE visible
09 Dec ? 03:27:32 10° ENE 03:30:47 23° ESE 03:34:03 10° SSE visible
10 Dec ? 03:26:53 10° ENE 03:30:06 22° ESE 03:33:20 10° SSE visible
11 Dec ? 03:26:14 10° ENE 03:29:24 22° ESE 03:32:35 10° SSE visible
12 Dec ? 03:25:32 10° ENE 03:28:40 21° ESE 03:31:49 10° SSE visible
13 Dec ? 03:24:50 10° ENE 03:27:56 21° ESE 03:31:03 10° SSE visible
